Weather in Kobra

Russia / Kirov Oblast     59°46′19″N   50°50′50″E
temp.,
°C
wind,
m/s
gust,
m/s
humid.,
%
clouds,
%
prec.,
mm/h
press.,
hPa
HPBL,
m
10 april, sat
sat1000:00−2ssw259719 0.0 1027103
03:00−3ssw139826 0.0 102946
06:00−3ssw12947 0.0 103167
09:00+4ssw24715 0.0 1031534
12:00+7s34615 0.0 10301311
15:00+7s4559100 0.0 10301405
18:00+3se1292100 0.0 102933
21:00−1ssw1198100 0.0 102918
11 april, sun
sun1100:00−2ssw139957 0.0 102861
03:000sw249887 0.0 1028175
06:000sw239274 0.0 1027257
09:00+3sw35775 0.0 1027481
12:00+8sw47560 0.0 1027892
15:00+9wsw476153 0.0 10281289
18:00+6wsw3878100 0.0 1030340
21:00+5wsw2789100 0.0 1032257
12 april, mon
mon1200:00+2w26954 0.0 1034105
03:000w22933 0.0 103617
06:00+1w12835 0.0 103764
09:00+7sw12535 0.0 1038566
12:00+10sw223819 0.0 10371184
15:00+11sw23395 0.0 10371369
18:00+8sw116712 0.0 103610
21:00+5ssw228334 0.0 103727
13 april, tue
tue1300:00+4ssw259136 0.0 103690
03:00+3ssw2594100 0.0 103689
06:00+4s2790100 0.0 1035199
09:00+8s4772100 0.0 1033428
12:00+11s4770100 0.0 1031605
15:00+13ssw4870100 0.0 1028786
18:00+11ssw41083100 0.0 1027435
21:00+9ssw31392100 0.0 1026315
14 april, wed
wed1400:00+8ssw31194100 0.0 1026309
03:00+6ssw299693 0.0 1025173
06:00+7sw298865 0.0 1025237
09:00+12sw366179 0.0 1024467
12:00+17sw46465 0.0 10241282
15:00+17wsw454253 0.0 10231792
18:00+14ssw385892 0.0 1022202
21:00+10ssw31176100 0.0 1022237